Regional Weather Roundup
Issued by NWS

Home | Current Version | Previous Version | Text Only | Print | Product List | Glossary Off
Versions: 1 2 3 4 5 6 7 8 9 10 11 12 13 14 15 16 17 18 19 20 21 22 23 24 25 26 27 28 29 30 31 32 33 34 35 36 37 38 39 40 41 42 43 44 45 46 47 48 49 50

000
ASUS45 KPSR 280400
RWRAZ

PRELIMINARY ARIZONA REGIONAL HOURLY WEATHER ROUNDUP
NATIONAL WEATHER SERVICE PHOENIX AZ
900 PM MST FRI FEB 27 2015

NOTE: FAIR INDICATES FEW OR NO CLOUDS BELOW 12,000 FEET WITH NO
SIGNIFICANT WEATHER AND/OR OBSTRUCTIONS TO VISIBILITY.

AZZ001>003-036-280500-
NORTHWEST ARIZONA

CITY           SKY/WX    TMP DP  RH WIND       PRES   REMARKS
KINGMAN        PTCLDY    49  31  49 S8        29.64S
$$

AZZ004>008-015-016-018-280500-
NORTH CENTRAL ARIZONA

CITY           SKY/WX    TMP DP  RH WIND       PRES   REMARKS
GRAND CANYON   CLOUDY    33  31  92 CALM      29.73R
PRESCOTT       MOCLDY    46  25  43 SW6       29.73R
FLAGSTAFF      NOT AVBL
PAYSON         MOCLDY    48  28  46 S3        29.77R
PAGE           CLOUDY    40  35  83 CALM      29.72S
$$

AZZ009>014-017-280500-
NORTHEAST ARIZONA

CITY           SKY/WX    TMP DP  RH WIND       PRES   REMARKS
WINSLOW        NOT AVBL
SAINT JOHNS    CLOUDY    45  25  45 SW9       29.74R
WINDOW ROCK    CLOUDY    30  28  92 CALM      29.76F
SHOW LOW       MOCLDY    41  23  48 SW9       29.78F
$$

AZZ023-280500-
GREATER PHOENIX AREA

CITY           SKY/WX    TMP DP  RH WIND       PRES   REMARKS
PHOENIX        MOCLDY    68  38  33 W8        29.64R
DEER VALLEY    PTCLDY    66  39  37 SW14      29.65R
SCOTTSDALE     CLEAR     68  39  34 SW6       29.67R
MESA-GATEWAY   MOCLDY    61  41  48 SW8       29.70R
CHANDLER       MOCLDY    64  37  36 S13       29.68R
$$

AZZ027-028-280500-
SOUTHWEST MARICOPA COUNTY AND PINAL COUNTY

CITY           SKY/WX    TMP DP  RH WIND       PRES   REMARKS
CASA GRANDE    PTCLDY    63  37  39 SW10      29.70R
GILA BEND      CLEAR     66  37  33 S12       29.69R
$$

AZZ503-504-507>509-280500-
SOUTHEAST ARIZONA

CITY           SKY/WX    TMP DP  RH WIND       PRES   REMARKS
TUCSON         PTCLDY    64  38  38 W5        29.77R
DAVIS-MONTHAN  PTCLDY    64  40  41 W10       29.74R
NOGALES        MOCLDY    57  38  48 S8        29.83R
SIERRA VISTA   MOCLDY    55  36  47 S8G25     29.80R
SAFFORD        MOCLDY    59  30  33 N6        29.72R
$$

AZZ020-021-025-026-031-280500-
SOUTHWEST ARIZONA

CITY           SKY/WX    TMP DP  RH WIND       PRES   REMARKS
YUMA           NOT AVBL
$$

CAZ031-033-041-043-047-048-061-280500-
SOUTHERN CALIFORNIA

CITY           SKY/WX    TMP DP  RH WIND       PRES   REMARKS
DOWNTOWN L.A.  CLOUDY    61  52  72 VRB6      29.75S
L.A. AIRPORT   MOCLDY    59  50  72 W16       29.76R
SAN DIEGO      MOCLDY    62  51  67 W8        29.82S
BURBANK        MOCLDY    58  51  78 SE8       29.74S
ONTARIO        CLOUDY    57  51  80 SW9       29.75S
RIVERSIDE      CLOUDY    58  51  78 W9        29.75S
PALM SPRINGS   MOCLDY    67  42  40 E13       29.63S
EL CENTRO NAS  CLEAR     67  43  41 W31G41    29.68R
IMPERIAL       CLEAR     66  44  45 W23G36    29.67R
BLYTHE         CLEAR     67  44  43 SW20      29.60R
$$

NVZ020-UTZ003-280500-
SOUTHERN NEVADA-UTAH

CITY           SKY/WX    TMP DP  RH WIND       PRES   REMARKS
LAS VEGAS      NOT AVBL
SALT LAKE CITY PTCLDY    34  26  72 E6        29.70S WCI  29
$$

NMZ009-TXZ055-280500-
NEW MEXICO-WEST TEXAS

CITY           SKY/WX    TMP DP  RH WIND       PRES   REMARKS
ALBUQUERQUE    LGT SNOW  23  21  92 N8        29.90S FOG     WCI  14
EL PASO        PTCLDY    32  21  64 NE12      29.94R WCI  23
$$


........................KEY........................
SKY/WX - SKY CONDITION/WEATHER
TMP    - TEMPERATURE IN FAHRENHEIT
DP     - DEW POINT IN FAHRENHEIT
RH     - RELATIVE HUMIDITY IN PERCENT
WIND   - DIRECTION AND SPEED IN MILES PER HOUR (MPH)
VRB    - VARIABLE WIND DIRECTION
PRES   - MEAN SEA LEVEL PRESSURE IN INCHES OF MERCURY
         F - FALLING PRESSURE   R - RISING PRESSURE
         S - STEADY PRESSURE
VSB    - VISIBILITY IN MILES
HX     - HEAT INDEX IN FAHRENHEIT
WCI    - WIND CHILL INDEX IN FAHRENHEIT
TC     - TEMPERATURE IN CELSIUS WHICH IS ALSO KNOWN AS
         TEMPERATURE IN CENTIGRADE
AFB    - AIR FORCE BASE
         LUKE AFB IS LUKE AIR FORCE BASE
         DAVIS-MONTHAN IS DAVIS-MONTHAN AIR FORCE BASE
NAS    - NAVAL AIR STATION
         EL CENTRO NAS IS EL CENTRO NAVAL AIR STATION
N/A    - NOT AVAILABLE


USA.gov is the U.S. government's official web portal to all federal, state and local government web resources and services.